Year,Month,Day,Hour,Minute,Value (Times are PST for temperature in C)
2007,06,26,00,00,11.80
2007,06,26,00,01,11.80
2007,06,26,00,02,11.80
2007,06,26,00,03,11.80
2007,06,26,00,04,11.80
2007,06,26,00,05,11.70
2007,06,26,00,06,11.70
2007,06,26,00,07,11.70
2007,06,26,00,08,11.70
2007,06,26,00,09,11.60
2007,06,26,00,10,11.60
2007,06,26,00,11,11.60
2007,06,26,00,12,11.50
2007,06,26,00,13,11.50
2007,06,26,00,14,11.40
2007,06,26,00,15,11.40
2007,06,26,00,16,11.40
2007,06,26,00,17,11.40
2007,06,26,00,18,11.30
2007,06,26,00,19,11.30
2007,06,26,00,20,11.30
2007,06,26,00,21,11.30
2007,06,26,00,22,11.30
2007,06,26,00,23,11.20
2007,06,26,00,24,11.20
2007,06,26,00,25,11.20
2007,06,26,00,26,11.10
2007,06,26,00,27,11.10
2007,06,26,00,28,11.10
2007,06,26,00,29,11.00
2007,06,26,00,30,11.00
2007,06,26,00,31,10.90
2007,06,26,00,32,10.90
2007,06,26,00,33,10.90
2007,06,26,00,34,10.90
2007,06,26,00,35,10.90
2007,06,26,00,36,10.80
2007,06,26,00,37,10.80
2007,06,26,00,38,10.80
2007,06,26,00,39,10.80
2007,06,26,00,40,10.80
2007,06,26,00,41,10.80
2007,06,26,00,42,10.80
2007,06,26,00,43,10.70
2007,06,26,00,44,10.80
2007,06,26,00,45,10.80
2007,06,26,00,46,10.80
2007,06,26,00,47,10.80
2007,06,26,00,48,10.70
2007,06,26,00,49,10.70
2007,06,26,00,50,10.70
2007,06,26,00,51,10.70
2007,06,26,00,52,10.70
2007,06,26,00,53,10.70
2007,06,26,00,54,10.70
2007,06,26,00,55,10.70
2007,06,26,00,56,10.60
2007,06,26,00,57,10.60
2007,06,26,00,58,10.60
2007,06,26,00,59,10.60
2007,06,26,01,00,10.60
2007,06,26,01,01,10.60
2007,06,26,01,02,10.60
2007,06,26,01,03,10.60
2007,06,26,01,04,10.50
2007,06,26,01,05,10.50
2007,06,26,01,06,10.50
2007,06,26,01,07,10.50
2007,06,26,01,08,10.40
2007,06,26,01,09,10.40
2007,06,26,01,10,10.40
2007,06,26,01,11,10.40
2007,06,26,01,12,10.40
2007,06,26,01,13,10.40
2007,06,26,01,14,10.40
2007,06,26,01,15,10.40
2007,06,26,01,16,10.40
2007,06,26,01,17,10.30
2007,06,26,01,18,10.30
2007,06,26,01,19,10.30
2007,06,26,01,20,10.30
2007,06,26,01,21,10.30
2007,06,26,01,22,10.30
2007,06,26,01,23,10.30
2007,06,26,01,24,10.30
2007,06,26,01,25,10.30
2007,06,26,01,26,10.20
2007,06,26,01,27,10.20
2007,06,26,01,28,10.20
2007,06,26,01,29,10.20
2007,06,26,01,30,10.20
2007,06,26,01,31,10.20
2007,06,26,01,32,10.20
2007,06,26,01,33,10.20
2007,06,26,01,34,10.20
2007,06,26,01,35,10.20
2007,06,26,01,36,10.20
2007,06,26,01,37,10.20
2007,06,26,01,38,10.20
2007,06,26,01,39,10.20
2007,06,26,01,40,10.20
2007,06,26,01,41,10.20
2007,06,26,01,42,10.20
2007,06,26,01,43,10.20
2007,06,26,01,44,10.20
2007,06,26,01,45,10.20
2007,06,26,01,46,10.20
2007,06,26,01,47,10.20
2007,06,26,01,48,10.20
2007,06,26,01,49,10.20
2007,06,26,01,50,10.20
2007,06,26,01,51,10.20
2007,06,26,01,52,10.20
2007,06,26,01,53,10.10
2007,06,26,01,54,10.10
2007,06,26,01,55,10.10
2007,06,26,01,56,10.10
2007,06,26,01,57,10.10
2007,06,26,01,58,10.10
2007,06,26,01,59,10.10
2007,06,26,02,00,10.10
2007,06,26,02,01,10.20
2007,06,26,02,02,10.20
2007,06,26,02,03,10.20
2007,06,26,02,04,10.20
2007,06,26,02,05,10.30
2007,06,26,02,06,10.30
2007,06,26,02,07,10.30
2007,06,26,02,08,10.30
2007,06,26,02,09,10.40
2007,06,26,02,10,10.40
2007,06,26,02,11,10.40
2007,06,26,02,12,10.40
2007,06,26,02,13,10.40
2007,06,26,02,14,10.40
2007,06,26,02,15,10.50
2007,06,26,02,16,10.60
2007,06,26,02,17,10.60
2007,06,26,02,18,10.60
2007,06,26,02,19,10.70
2007,06,26,02,20,10.70
2007,06,26,02,21,10.70
2007,06,26,02,22,10.70
2007,06,26,02,23,10.80
2007,06,26,02,24,10.80
2007,06,26,02,25,10.80
2007,06,26,02,26,10.80
2007,06,26,02,27,10.90
2007,06,26,02,28,10.90
2007,06,26,02,29,10.90
2007,06,26,02,30,11.00
2007,06,26,02,31,11.00
2007,06,26,02,32,11.10
2007,06,26,02,33,11.20
2007,06,26,02,34,11.40
2007,06,26,02,35,11.50
2007,06,26,02,36,11.60
2007,06,26,02,37,11.70
2007,06,26,02,38,11.80
2007,06,26,02,39,11.80
2007,06,26,02,40,11.90
2007,06,26,02,41,12.00
2007,06,26,02,42,12.10
2007,06,26,02,43,12.10
2007,06,26,02,44,12.20
2007,06,26,02,45,12.20
2007,06,26,02,46,12.30
2007,06,26,02,47,12.30
2007,06,26,02,48,12.40
2007,06,26,02,49,12.40
2007,06,26,02,50,12.40
2007,06,26,02,51,12.40
2007,06,26,02,52,12.40
2007,06,26,02,53,12.40
2007,06,26,02,54,12.40
2007,06,26,02,55,12.40
2007,06,26,02,56,12.50
2007,06,26,02,57,12.50
2007,06,26,02,58,12.50
2007,06,26,02,59,12.60
2007,06,26,03,00,12.60
2007,06,26,03,01,12.50
2007,06,26,03,02,12.50
2007,06,26,03,03,12.50
2007,06,26,03,04,12.40
2007,06,26,03,05,12.40
2007,06,26,03,06,12.40
2007,06,26,03,07,12.40
2007,06,26,03,08,12.40
2007,06,26,03,09,12.30
2007,06,26,03,10,12.30
2007,06,26,03,11,12.30
2007,06,26,03,12,12.30
2007,06,26,03,13,12.30
2007,06,26,03,14,12.30
2007,06,26,03,15,12.20
2007,06,26,03,16,12.20
2007,06,26,03,17,12.20
2007,06,26,03,18,12.30
2007,06,26,03,19,12.30
2007,06,26,03,20,12.30
2007,06,26,03,21,12.30
2007,06,26,03,22,12.30
2007,06,26,03,23,12.30
2007,06,26,03,24,12.30
2007,06,26,03,25,12.40
2007,06,26,03,26,12.40
2007,06,26,03,27,12.40
2007,06,26,03,28,12.40
2007,06,26,03,29,12.40
2007,06,26,03,30,12.40
2007,06,26,03,31,12.40
2007,06,26,03,32,12.40
2007,06,26,03,33,12.40
2007,06,26,03,34,12.40
2007,06,26,03,35,12.40
2007,06,26,03,36,12.40
2007,06,26,03,37,12.40
2007,06,26,03,38,12.40
2007,06,26,03,39,12.40
2007,06,26,03,40,12.40
2007,06,26,03,41,12.40
2007,06,26,03,42,12.40
2007,06,26,03,43,12.50
2007,06,26,03,44,12.50
2007,06,26,03,45,12.50
2007,06,26,03,46,12.50
2007,06,26,03,47,12.50
2007,06,26,03,48,12.40
2007,06,26,03,49,12.40
2007,06,26,03,50,12.40
2007,06,26,03,51,12.50
2007,06,26,03,52,12.50
2007,06,26,03,53,12.50
2007,06,26,03,54,12.40
2007,06,26,03,55,12.40
2007,06,26,03,56,12.40
2007,06,26,03,57,12.40
2007,06,26,03,58,12.40
2007,06,26,03,59,12.40
2007,06,26,04,00,12.30
2007,06,26,04,01,12.30
2007,06,26,04,02,12.30
2007,06,26,04,03,12.30
2007,06,26,04,04,12.30
2007,06,26,04,05,12.30
2007,06,26,04,06,12.20
2007,06,26,04,07,12.20
2007,06,26,04,08,12.20
2007,06,26,04,09,12.20
2007,06,26,04,10,12.20
2007,06,26,04,11,12.10
2007,06,26,04,12,12.10
2007,06,26,04,13,12.10
2007,06,26,04,14,12.00
2007,06,26,04,15,12.00
2007,06,26,04,16,12.00
2007,06,26,04,17,12.00
2007,06,26,04,18,12.00
2007,06,26,04,19,12.00
2007,06,26,04,20,12.00
2007,06,26,04,21,12.10
2007,06,26,04,22,12.10
2007,06,26,04,23,12.10
2007,06,26,04,24,12.00
2007,06,26,04,25,12.00
2007,06,26,04,26,12.10
2007,06,26,04,27,12.10
2007,06,26,04,28,12.20
2007,06,26,04,29,12.20
2007,06,26,04,30,12.20
2007,06,26,04,31,12.20
2007,06,26,04,32,12.20
2007,06,26,04,33,12.20
2007,06,26,04,34,12.30
2007,06,26,04,35,12.30
2007,06,26,04,36,12.30
2007,06,26,04,37,12.30
2007,06,26,04,38,12.30
2007,06,26,04,39,12.30
2007,06,26,04,40,12.30
2007,06,26,04,41,12.30
2007,06,26,04,42,12.30
2007,06,26,04,43,12.30
2007,06,26,04,44,12.30
2007,06,26,04,45,12.30
2007,06,26,04,46,12.30
2007,06,26,04,47,12.30
2007,06,26,04,48,12.30
2007,06,26,04,49,12.30
2007,06,26,04,50,12.30
2007,06,26,04,51,12.30
2007,06,26,04,52,12.30
2007,06,26,04,53,12.30
2007,06,26,04,54,12.30
2007,06,26,04,55,12.30
2007,06,26,04,56,12.40
2007,06,26,04,57,12.40
2007,06,26,04,58,12.40
2007,06,26,04,59,12.40
2007,06,26,05,00,12.40
2007,06,26,05,01,12.40
2007,06,26,05,02,12.40
2007,06,26,05,03,12.40
2007,06,26,05,04,12.40
2007,06,26,05,05,12.30
2007,06,26,05,06,12.30
2007,06,26,05,07,12.30
2007,06,26,05,08,12.30
2007,06,26,05,09,12.30
2007,06,26,05,10,12.20
2007,06,26,05,11,12.20
2007,06,26,05,12,12.20
2007,06,26,05,13,12.20
2007,06,26,05,14,12.10
2007,06,26,05,15,12.10
2007,06,26,05,16,12.10
2007,06,26,05,17,12.10
2007,06,26,05,18,12.10
2007,06,26,05,19,12.00
2007,06,26,05,20,12.00
2007,06,26,05,21,12.00
2007,06,26,05,22,12.00
2007,06,26,05,23,12.00
2007,06,26,05,24,12.10
2007,06,26,05,25,12.00
2007,06,26,05,26,12.00
2007,06,26,05,27,12.00
2007,06,26,05,28,12.00
2007,06,26,05,29,12.00
2007,06,26,05,30,12.00
2007,06,26,05,31,12.00
2007,06,26,05,32,12.00
2007,06,26,05,33,12.00
2007,06,26,05,34,12.00
2007,06,26,05,35,11.90
2007,06,26,05,36,11.90
2007,06,26,05,37,11.90
2007,06,26,05,38,11.90
2007,06,26,05,39,11.90
2007,06,26,05,40,11.90
2007,06,26,05,41,11.90
2007,06,26,05,42,11.90
2007,06,26,05,43,11.90
2007,06,26,05,44,11.90
2007,06,26,05,45,11.90
2007,06,26,05,46,11.90
2007,06,26,05,47,11.90
2007,06,26,05,48,11.90
2007,06,26,05,49,11.90
2007,06,26,05,50,11.90
2007,06,26,05,51,11.90
2007,06,26,05,52,11.90
2007,06,26,05,53,11.90
2007,06,26,05,54,11.90
2007,06,26,05,55,12.00
2007,06,26,05,56,12.00
2007,06,26,05,57,12.00
2007,06,26,05,58,11.90
2007,06,26,05,59,11.90
2007,06,26,06,00,11.90
2007,06,26,06,01,11.90
2007,06,26,06,02,11.90
2007,06,26,06,03,11.90
2007,06,26,06,04,12.00
2007,06,26,06,05,12.00
2007,06,26,06,06,12.00
2007,06,26,06,07,12.00
2007,06,26,06,08,12.10
2007,06,26,06,09,12.10
2007,06,26,06,10,12.10
2007,06,26,06,11,12.10
2007,06,26,06,12,12.20
2007,06,26,06,13,12.20
2007,06,26,06,14,12.20
2007,06,26,06,15,12.20
2007,06,26,06,16,12.30
2007,06,26,06,17,12.30
2007,06,26,06,18,12.30
2007,06,26,06,19,12.30
2007,06,26,06,20,12.30
2007,06,26,06,21,12.30
2007,06,26,06,22,12.40
2007,06,26,06,23,12.40
2007,06,26,06,24,12.40
2007,06,26,06,25,12.40
2007,06,26,06,26,12.50
2007,06,26,06,27,12.50
2007,06,26,06,28,12.50
2007,06,26,06,29,12.60
2007,06,26,06,30,12.60
2007,06,26,06,31,12.60
2007,06,26,06,32,12.60
2007,06,26,06,33,12.60
2007,06,26,06,34,12.60
2007,06,26,06,35,12.60
2007,06,26,06,36,12.60
2007,06,26,06,37,12.60
2007,06,26,06,38,12.60
2007,06,26,06,39,12.60
2007,06,26,06,40,12.60
2007,06,26,06,41,12.70
2007,06,26,06,42,12.70
2007,06,26,06,43,12.70
2007,06,26,06,44,12.70
2007,06,26,06,45,12.70
2007,06,26,06,46,12.70
2007,06,26,06,47,12.70
2007,06,26,06,48,12.70
2007,06,26,06,49,12.70
2007,06,26,06,50,12.80
2007,06,26,06,51,12.80
2007,06,26,06,52,12.80
2007,06,26,06,53,12.80
2007,06,26,06,54,12.80
2007,06,26,06,55,12.80
2007,06,26,06,56,12.80
2007,06,26,06,57,12.80
2007,06,26,06,58,12.80
2007,06,26,06,59,12.80
2007,06,26,07,00,12.80
2007,06,26,07,01,12.80
2007,06,26,07,02,12.80
2007,06,26,07,03,12.80
2007,06,26,07,04,12.90
2007,06,26,07,05,12.90
2007,06,26,07,06,12.90
2007,06,26,07,07,12.90
2007,06,26,07,08,12.90
2007,06,26,07,09,13.00
2007,06,26,07,10,13.00
2007,06,26,07,11,13.10
2007,06,26,07,12,13.10
2007,06,26,07,13,13.10
2007,06,26,07,14,13.20
2007,06,26,07,15,13.20
2007,06,26,07,16,13.20
2007,06,26,07,17,13.20
2007,06,26,07,18,13.20
2007,06,26,07,19,13.20
2007,06,26,07,20,13.20
2007,06,26,07,21,13.20
2007,06,26,07,22,13.20
2007,06,26,07,23,13.20
2007,06,26,07,24,13.20
2007,06,26,07,25,13.20
2007,06,26,07,26,13.30
2007,06,26,07,27,13.30
2007,06,26,07,28,13.30
2007,06,26,07,29,13.40
2007,06,26,07,30,13.40
2007,06,26,07,31,13.40
2007,06,26,07,32,13.40
2007,06,26,07,33,13.50
2007,06,26,07,34,13.60
2007,06,26,07,35,13.60
2007,06,26,07,36,13.60
2007,06,26,07,37,13.60
2007,06,26,07,38,13.60
2007,06,26,07,39,13.60
2007,06,26,07,40,13.50
2007,06,26,07,41,13.60
2007,06,26,07,42,13.60
2007,06,26,07,43,13.60
2007,06,26,07,44,13.70
2007,06,26,07,45,13.70
2007,06,26,07,46,13.70
2007,06,26,07,47,13.70
2007,06,26,07,48,13.60
2007,06,26,07,49,13.60
2007,06,26,07,50,13.60
2007,06,26,07,51,13.60
2007,06,26,07,52,13.60
2007,06,26,07,53,13.60
2007,06,26,07,54,13.70
2007,06,26,07,55,13.70
2007,06,26,07,56,13.70
2007,06,26,07,57,13.70
2007,06,26,07,58,13.70
2007,06,26,07,59,13.70
2007,06,26,08,00,13.60
2007,06,26,08,01,13.60
2007,06,26,08,02,13.70
2007,06,26,08,03,13.60
2007,06,26,08,04,13.60
2007,06,26,08,05,13.60
2007,06,26,08,06,13.60
2007,06,26,08,07,13.70
2007,06,26,08,08,13.70
2007,06,26,08,09,13.70
2007,06,26,08,10,13.80
2007,06,26,08,11,13.80
2007,06,26,08,12,13.80
2007,06,26,08,13,13.80
2007,06,26,08,14,13.80
2007,06,26,08,15,13.70
2007,06,26,08,16,13.70
2007,06,26,08,17,13.60
2007,06,26,08,18,13.50
2007,06,26,08,19,13.50
2007,06,26,08,20,13.50
2007,06,26,08,21,13.50
2007,06,26,08,22,13.50
2007,06,26,08,23,13.60
2007,06,26,08,24,13.60
2007,06,26,08,25,13.60
2007,06,26,08,26,13.70
2007,06,26,08,27,13.70
2007,06,26,08,28,13.80
2007,06,26,08,29,13.80
2007,06,26,08,30,13.90
2007,06,26,08,31,13.90
2007,06,26,08,32,13.90
2007,06,26,08,33,13.90
2007,06,26,08,34,13.90
2007,06,26,08,35,13.90
2007,06,26,08,36,13.90
2007,06,26,08,37,13.90
2007,06,26,08,38,13.90
2007,06,26,08,39,13.90
2007,06,26,08,40,14.00
2007,06,26,08,41,14.10
2007,06,26,08,42,14.10
2007,06,26,08,43,14.10
2007,06,26,08,44,14.00
2007,06,26,08,45,14.00
2007,06,26,08,46,14.00
2007,06,26,08,47,14.10
2007,06,26,08,48,14.00
2007,06,26,08,49,14.00
2007,06,26,08,50,13.90
2007,06,26,08,51,13.90
2007,06,26,08,52,14.00
2007,06,26,08,53,14.00
2007,06,26,08,54,13.90
2007,06,26,08,55,13.90
2007,06,26,08,56,13.80
2007,06,26,08,57,13.80
2007,06,26,08,58,13.70
2007,06,26,08,59,13.70
2007,06,26,09,00,13.70
2007,06,26,09,01,13.80
2007,06,26,09,02,13.80
2007,06,26,09,03,13.90
2007,06,26,09,04,13.90
2007,06,26,09,05,14.00
2007,06,26,09,06,14.10
2007,06,26,09,07,14.20
2007,06,26,09,08,14.30
2007,06,26,09,09,14.30
2007,06,26,09,10,14.30
2007,06,26,09,11,14.30
2007,06,26,09,12,14.30
2007,06,26,09,13,14.30
2007,06,26,09,14,14.30
2007,06,26,09,15,14.30
2007,06,26,09,16,14.30
2007,06,26,09,17,14.20
2007,06,26,09,18,14.20
2007,06,26,09,19,14.20
2007,06,26,09,20,14.30
2007,06,26,09,21,14.30
2007,06,26,09,22,14.20
2007,06,26,09,23,14.20
2007,06,26,09,24,14.20
2007,06,26,09,25,14.20
2007,06,26,09,26,14.10
2007,06,26,09,27,14.10
2007,06,26,09,28,14.10
2007,06,26,09,29,14.20
2007,06,26,09,30,14.20
2007,06,26,09,31,14.30
2007,06,26,09,32,14.30
2007,06,26,09,33,14.30
2007,06,26,09,34,14.30
2007,06,26,09,35,14.50
2007,06,26,09,36,14.50
2007,06,26,09,37,14.30
2007,06,26,09,38,14.30
2007,06,26,09,39,14.30
2007,06,26,09,40,14.40
2007,06,26,09,41,14.40
2007,06,26,09,42,14.40
2007,06,26,09,43,14.40
2007,06,26,09,44,14.30
2007,06,26,09,45,14.30
2007,06,26,09,46,14.30
2007,06,26,09,47,14.30
2007,06,26,09,48,14.30
2007,06,26,09,49,14.30
2007,06,26,09,50,14.20
2007,06,26,09,51,14.20
2007,06,26,09,52,14.30
2007,06,26,09,53,14.30
2007,06,26,09,54,14.40
2007,06,26,09,55,14.40
2007,06,26,09,56,14.30
2007,06,26,09,57,14.40
2007,06,26,09,58,14.50
2007,06,26,09,59,14.50
2007,06,26,10,00,14.60
2007,06,26,10,01,14.70
2007,06,26,10,02,14.70
2007,06,26,10,03,14.60
2007,06,26,10,04,14.50
2007,06,26,10,05,14.50
2007,06,26,10,06,14.40
2007,06,26,10,07,14.40
2007,06,26,10,08,14.40
2007,06,26,10,09,14.50
2007,06,26,10,10,14.50
2007,06,26,10,11,14.40
2007,06,26,10,12,14.40
2007,06,26,10,13,14.40
2007,06,26,10,14,14.40
2007,06,26,10,15,14.50
2007,06,26,10,16,14.50
2007,06,26,10,17,14.60
2007,06,26,10,18,14.70
2007,06,26,10,19,14.90
2007,06,26,10,20,15.00
2007,06,26,10,21,15.00
2007,06,26,10,22,15.00
2007,06,26,10,23,15.00
2007,06,26,10,24,15.00
2007,06,26,10,25,15.00
2007,06,26,10,26,15.00
2007,06,26,10,27,15.00
2007,06,26,10,28,15.20
2007,06,26,10,29,15.40
2007,06,26,10,30,15.50
2007,06,26,10,31,15.60
2007,06,26,10,32,15.50
2007,06,26,10,33,15.40
2007,06,26,10,34,15.40
2007,06,26,10,35,15.30
2007,06,26,10,36,15.40
2007,06,26,10,37,15.40
2007,06,26,10,38,15.40
2007,06,26,10,39,15.50
2007,06,26,10,40,15.60
2007,06,26,10,41,15.60
2007,06,26,10,42,15.50
2007,06,26,10,43,15.40
2007,06,26,10,44,15.40
2007,06,26,10,45,15.40
2007,06,26,10,46,15.40
2007,06,26,10,47,15.40
2007,06,26,10,48,15.40
2007,06,26,10,49,15.40
2007,06,26,10,50,15.50
2007,06,26,10,51,15.50
2007,06,26,10,52,15.60
2007,06,26,10,53,15.50
2007,06,26,10,54,15.40
2007,06,26,10,55,15.40
2007,06,26,10,56,15.50
2007,06,26,10,57,15.50
2007,06,26,10,58,15.40
2007,06,26,10,59,15.40
2007,06,26,11,00,15.40
2007,06,26,11,01,15.40
2007,06,26,11,02,15.50
2007,06,26,11,03,15.70
2007,06,26,11,04,15.80
2007,06,26,11,05,15.80
2007,06,26,11,06,15.80
2007,06,26,11,07,15.90
2007,06,26,11,08,15.90
2007,06,26,11,09,16.00
2007,06,26,11,10,16.20
2007,06,26,11,11,16.20
2007,06,26,11,12,16.30
2007,06,26,11,13,16.40
2007,06,26,11,14,16.40
2007,06,26,11,15,16.50
2007,06,26,11,16,16.60
2007,06,26,11,17,16.70
2007,06,26,11,18,16.80
2007,06,26,11,19,16.90
2007,06,26,11,20,16.90
2007,06,26,11,21,16.90
2007,06,26,11,22,16.80
2007,06,26,11,23,16.60
2007,06,26,11,24,16.50
2007,06,26,11,25,16.40
2007,06,26,11,26,16.40
2007,06,26,11,27,16.30
2007,06,26,11,28,16.30
2007,06,26,11,29,16.40
2007,06,26,11,30,16.50
2007,06,26,11,31,16.70
2007,06,26,11,32,16.60
2007,06,26,11,33,16.70
2007,06,26,11,34,16.70
2007,06,26,11,35,16.80
2007,06,26,11,36,16.90
2007,06,26,11,37,17.10
2007,06,26,11,38,17.20
2007,06,26,11,39,17.20
2007,06,26,11,40,17.20
2007,06,26,11,41,17.20
2007,06,26,11,42,17.20
2007,06,26,11,43,17.20
2007,06,26,11,44,17.20
2007,06,26,11,45,17.10
2007,06,26,11,46,17.10
2007,06,26,11,47,17.20
2007,06,26,11,48,17.30
2007,06,26,11,49,17.40
2007,06,26,11,50,17.50
2007,06,26,11,51,17.40
2007,06,26,11,52,17.20
2007,06,26,11,53,17.10
2007,06,26,11,54,16.90
2007,06,26,11,55,16.80
2007,06,26,11,56,16.80
2007,06,26,11,57,17.00
2007,06,26,11,58,17.10
2007,06,26,11,59,17.20
2007,06,26,12,00,17.10
2007,06,26,12,01,17.00
2007,06,26,12,02,17.00
2007,06,26,12,03,17.10
2007,06,26,12,04,17.10
2007,06,26,12,05,17.00
2007,06,26,12,06,16.90
2007,06,26,12,07,16.90
2007,06,26,12,08,17.00
2007,06,26,12,09,17.00
2007,06,26,12,10,17.00
2007,06,26,12,11,17.20
2007,06,26,12,12,17.30
2007,06,26,12,13,17.30
2007,06,26,12,14,17.30
2007,06,26,12,15,17.20
2007,06,26,12,16,17.20
2007,06,26,12,17,17.10
2007,06,26,12,18,17.10
2007,06,26,12,19,17.00
2007,06,26,12,20,17.00
2007,06,26,12,21,17.10
2007,06,26,12,22,17.20
2007,06,26,12,23,17.30
2007,06,26,12,24,17.30
2007,06,26,12,25,17.30
2007,06,26,12,26,17.50
2007,06,26,12,27,17.50
2007,06,26,12,28,17.60
2007,06,26,12,29,17.60
2007,06,26,12,30,17.70
2007,06,26,12,31,17.80
2007,06,26,12,32,17.90
2007,06,26,12,33,17.80
2007,06,26,12,34,17.90
2007,06,26,12,35,17.90
2007,06,26,12,36,17.90
2007,06,26,12,37,17.80
2007,06,26,12,38,17.80
2007,06,26,12,39,18.00
2007,06,26,12,40,18.10
2007,06,26,12,41,18.20
2007,06,26,12,42,18.40
2007,06,26,12,43,18.40
2007,06,26,12,44,18.40
2007,06,26,12,45,18.40
2007,06,26,12,46,18.20
2007,06,26,12,47,18.10
2007,06,26,12,48,18.00
2007,06,26,12,49,18.10
2007,06,26,12,50,18.20
2007,06,26,12,51,18.40
2007,06,26,12,52,18.30
2007,06,26,12,53,18.30
2007,06,26,12,54,18.40
2007,06,26,12,55,18.60
2007,06,26,12,56,18.60
2007,06,26,12,57,18.60
2007,06,26,12,58,18.50
2007,06,26,12,59,18.30
2007,06,26,13,00,18.30
2007,06,26,13,01,18.30
2007,06,26,13,02,18.20
2007,06,26,13,03,18.20
2007,06,26,13,04,18.20
2007,06,26,13,05,18.20
2007,06,26,13,06,18.20
2007,06,26,13,07,18.20
2007,06,26,13,08,18.20
2007,06,26,13,09,18.20
2007,06,26,13,10,18.20
2007,06,26,13,11,18.20
2007,06,26,13,12,18.30
2007,06,26,13,13,18.40
2007,06,26,13,14,18.50
2007,06,26,13,15,18.50
2007,06,26,13,16,18.60
2007,06,26,13,17,18.70
2007,06,26,13,18,19.00
2007,06,26,13,19,19.20
2007,06,26,13,20,19.20
2007,06,26,13,21,19.20
2007,06,26,13,22,19.20
2007,06,26,13,23,19.20
2007,06,26,13,24,19.30
2007,06,26,13,25,19.40
2007,06,26,13,26,19.50
2007,06,26,13,27,19.40
2007,06,26,13,28,19.40
2007,06,26,13,29,19.40
2007,06,26,13,30,19.40
2007,06,26,13,31,19.40
2007,06,26,13,32,19.40
2007,06,26,13,33,19.30
2007,06,26,13,34,19.20
2007,06,26,13,35,19.10
2007,06,26,13,36,19.00
2007,06,26,13,37,18.90
2007,06,26,13,38,18.90
2007,06,26,13,39,18.90
2007,06,26,13,40,18.90
2007,06,26,13,41,19.00
2007,06,26,13,42,18.90
2007,06,26,13,43,18.90
2007,06,26,13,44,19.00
2007,06,26,13,45,19.00
2007,06,26,13,46,18.90
2007,06,26,13,47,18.80
2007,06,26,13,48,18.80
2007,06,26,13,49,18.80
2007,06,26,13,50,18.90
2007,06,26,13,51,19.00
2007,06,26,13,52,19.10
2007,06,26,13,53,19.10
2007,06,26,13,54,19.20
2007,06,26,13,55,19.10
2007,06,26,13,56,19.00
2007,06,26,13,57,19.10
2007,06,26,13,58,19.10
2007,06,26,13,59,19.00
2007,06,26,14,00,18.90
2007,06,26,14,01,18.90
2007,06,26,14,02,18.90
2007,06,26,14,03,18.90
2007,06,26,14,04,18.90
2007,06,26,14,05,18.90
2007,06,26,14,06,18.90
2007,06,26,14,07,19.00
2007,06,26,14,08,19.10
2007,06,26,14,09,19.10
2007,06,26,14,10,19.00
2007,06,26,14,11,19.00
2007,06,26,14,12,19.00
2007,06,26,14,13,19.10
2007,06,26,14,14,19.10
2007,06,26,14,15,19.20
2007,06,26,14,16,19.30
2007,06,26,14,17,19.30
2007,06,26,14,18,19.40
2007,06,26,14,19,19.50
2007,06,26,14,20,19.50
2007,06,26,14,21,19.50
2007,06,26,14,22,19.50
2007,06,26,14,23,19.60
2007,06,26,14,24,19.60
2007,06,26,14,25,19.70
2007,06,26,14,26,19.80
2007,06,26,14,27,19.90
2007,06,26,14,28,19.90
2007,06,26,14,29,19.80
2007,06,26,14,30,19.80
2007,06,26,14,31,19.80
2007,06,26,14,32,19.70
2007,06,26,14,33,19.60
2007,06,26,14,34,19.50
2007,06,26,14,35,19.40
2007,06,26,14,36,19.40
2007,06,26,14,37,19.50
2007,06,26,14,38,19.50
2007,06,26,14,39,19.60
2007,06,26,14,40,19.50
2007,06,26,14,41,19.40
2007,06,26,14,42,19.40
2007,06,26,14,43,19.40
2007,06,26,14,44,19.40
2007,06,26,14,45,19.40
2007,06,26,14,46,19.50
2007,06,26,14,47,19.60
2007,06,26,14,48,19.60
2007,06,26,14,49,19.60
2007,06,26,14,50,19.60
2007,06,26,14,51,19.60
2007,06,26,14,52,19.70
2007,06,26,14,53,19.80
2007,06,26,14,54,19.80
2007,06,26,14,55,19.70
2007,06,26,14,56,19.70
2007,06,26,14,57,19.60
2007,06,26,14,58,19.60
2007,06,26,14,59,19.60
2007,06,26,15,00,19.60
2007,06,26,15,01,19.60
2007,06,26,15,02,19.60
2007,06,26,15,03,19.70
2007,06,26,15,04,19.70
2007,06,26,15,05,19.70
2007,06,26,15,06,19.80
2007,06,26,15,07,19.80
2007,06,26,15,08,19.90
2007,06,26,15,09,19.80
2007,06,26,15,10,19.90
2007,06,26,15,11,19.90
2007,06,26,15,12,20.00
2007,06,26,15,13,20.00
2007,06,26,15,14,20.00
2007,06,26,15,15,20.10
2007,06,26,15,16,20.10
2007,06,26,15,17,20.10
2007,06,26,15,18,20.00
2007,06,26,15,19,20.00
2007,06,26,15,20,19.90
2007,06,26,15,21,19.90
2007,06,26,15,22,19.90
2007,06,26,15,23,19.90
2007,06,26,15,24,19.90
2007,06,26,15,25,19.90
2007,06,26,15,26,19.90
2007,06,26,15,27,20.00
2007,06,26,15,28,20.00
2007,06,26,15,29,20.10
2007,06,26,15,30,20.10
2007,06,26,15,31,20.10
2007,06,26,15,32,20.10
2007,06,26,15,33,20.10
2007,06,26,15,34,20.00
2007,06,26,15,35,20.00
2007,06,26,15,36,19.90
2007,06,26,15,37,19.90
2007,06,26,15,38,20.00
2007,06,26,15,39,20.00
2007,06,26,15,40,19.90
2007,06,26,15,41,19.90
2007,06,26,15,42,19.90
2007,06,26,15,43,19.90
2007,06,26,15,44,19.90
2007,06,26,15,45,19.90
2007,06,26,15,46,19.90
2007,06,26,15,47,19.90
2007,06,26,15,48,19.90
2007,06,26,15,49,19.90
2007,06,26,15,50,19.90
2007,06,26,15,51,20.00
2007,06,26,15,52,19.90
2007,06,26,15,53,19.90
2007,06,26,15,54,19.80
2007,06,26,15,55,19.80
2007,06,26,15,56,19.80
2007,06,26,15,57,19.70
2007,06,26,15,58,19.70
2007,06,26,15,59,19.70
2007,06,26,16,00,19.70
2007,06,26,16,01,19.70
2007,06,26,16,02,19.70
2007,06,26,16,03,19.70
2007,06,26,16,04,19.70
2007,06,26,16,05,19.80
2007,06,26,16,06,19.80
2007,06,26,16,07,19.80
2007,06,26,16,08,19.80
2007,06,26,16,09,19.70
2007,06,26,16,10,19.70
2007,06,26,16,11,19.70
2007,06,26,16,12,19.80
2007,06,26,16,13,19.80
2007,06,26,16,14,19.80
2007,06,26,16,15,19.80
2007,06,26,16,16,19.90
2007,06,26,16,17,19.90
2007,06,26,16,18,19.90
2007,06,26,16,19,19.90
2007,06,26,16,20,20.00
2007,06,26,16,21,19.90
2007,06,26,16,22,19.90
2007,06,26,16,23,19.90
2007,06,26,16,24,19.90
2007,06,26,16,25,19.90
2007,06,26,16,26,19.90
2007,06,26,16,27,19.90
2007,06,26,16,28,19.90
2007,06,26,16,29,19.80
2007,06,26,16,30,19.80
2007,06,26,16,31,19.90
2007,06,26,16,32,19.90
2007,06,26,16,33,20.00
2007,06,26,16,34,20.00
2007,06,26,16,35,20.00
2007,06,26,16,36,20.10
2007,06,26,16,37,20.10
2007,06,26,16,38,20.20
2007,06,26,16,39,20.20
2007,06,26,16,40,20.20
2007,06,26,16,41,20.20
2007,06,26,16,42,20.20
2007,06,26,16,43,20.20
2007,06,26,16,44,20.20
2007,06,26,16,45,20.20
2007,06,26,16,46,20.10
2007,06,26,16,47,20.10
2007,06,26,16,48,20.10
2007,06,26,16,49,20.00
2007,06,26,16,50,20.00
2007,06,26,16,51,20.00
2007,06,26,16,52,20.00
2007,06,26,16,53,19.90
2007,06,26,16,54,19.90
2007,06,26,16,55,19.90
2007,06,26,16,56,19.80
2007,06,26,16,57,19.80
2007,06,26,16,58,19.80
2007,06,26,16,59,19.70
2007,06,26,17,00,19.70
2007,06,26,17,01,19.70
2007,06,26,17,02,19.70
2007,06,26,17,03,19.70
2007,06,26,17,04,19.70
2007,06,26,17,05,19.70
2007,06,26,17,06,19.70
2007,06,26,17,07,19.60
2007,06,26,17,08,19.70
2007,06,26,17,09,19.70
2007,06,26,17,10,19.70
2007,06,26,17,11,19.70
2007,06,26,17,12,19.70
2007,06,26,17,13,19.60
2007,06,26,17,14,19.60
2007,06,26,17,15,19.60
2007,06,26,17,16,19.50
2007,06,26,17,17,19.50
2007,06,26,17,18,19.50
2007,06,26,17,19,19.50